Regional Weather Roundup
Issued by NWS Midland/Odessa, TX

Skip options and go directly to product.
Home | Oldest Version | Previous Version | Current Version | All | Text Only | Save Text | Print | Product List | Glossary On

Skip product version selection by date and time.   
621
ASUS44 KMAF 250310
RWRMAF
MIDLAND AREA WEATHER ROUNDUP
NATIONAL WEATHER SERVICE MIDLAND TX
1000 PM CDT THU JUL 24 2014

...IN SOUTHWEST TEXAS AND SOUTHEAST NEW MEXICO...

CITY           SKY/WX    TMP DP  RH WIND       PRES   REMARKS
ALPINE         CLEAR     80  53  39 SE12G18   30.22R
ANDREWS        FAIR      88  56  33 SE12G17   30.07R
ARTESIA        CLEAR     88  46  23 S5        30.05R
BIG SPRING     CLEAR     88  58  36 SE12      30.07R
CARLSBAD       PTCLDY    90  43  19 SE7       30.03R
DRYDEN           N/A     90  56  31 E6        30.01R
FORT STOCKTON  CLEAR     88  56  33 SE10      30.06R
GUAD PASS      CLEAR     79  44  28 E12         N/A
HOBBS          CLEAR     86  46  25 E8        30.09R
MARFA          CLEAR     73  48  40 E8        30.21S
MIDLAND AIRPK  CLEAR     90  58  33 SE13      30.06R
MIDLAND INTL   CLEAR     89  60  37 SE15      30.05R
ODESSA         PTCLDY    85  63  47 SE14      30.06R
PECOS          CLEAR     84  50  30 SE6       30.00R
PRESIDIO       FAIR      89  54  29 SE3       30.02R
SEMINOLE       CLEAR     86  50  28 SE8       30.09R
SNYDER         CLEAR     88  61  40 SE10      30.06R
WINK           CLEAR     92  51  24 SE8       30.01R
$$
...OTHER STATIONS IN TEXAS...

CITY           SKY/WX    TMP DP  RH WIND       PRES   REMARKS
ABILENE        CLEAR     87  64  46 SE10      30.02R
AMARILLO       CLEAR     83  57  41 S14       30.08R
AUSTIN         PTCLDY    84  72  67 SE3       29.97R
BROWNSVILLE    PTCLDY    82  75  79 SE7       29.97R
CORPUS CHRISTI PTCLDY    83  73  72 SE9       29.97R
DALLAS FTW     CLEAR     85  67  54 SE10      29.98R
DEL RIO        CLOUDY    86  66  51 E8        29.96S
EL PASO        PTCLDY    91  47  21 SE7       30.05R
HOUSTON INT    MOCLDY    83  73  72 S5        29.97R
LUBBOCK        CLEAR     83  58  42 SE10      30.08R
SAN ANGELO     CLEAR     85  62  46 E6        30.02R
SAN ANTONIO    PTCLDY    86  69  56 S8        29.99R
WACO           CLEAR     82  69  64 SE6       29.97R
WICHITA FALLS  NOT AVBL
$$
...OTHER LOCATIONS IN NEW MEXICO...

CITY           SKY/WX    TMP DP  RH WIND       PRES   REMARKS
ALAMAGORDO     PTCLDY    84  41  21 S7        30.10R
ALBUQUERQUE    PTCLDY    86  41  20 S9        30.17R
CANNON AFB     CLEAR     78  56  46 S8        30.13R
CLOVIS         NOT AVBL
HOLLOMAN AFB   MOCLDY    87  42  20 S8        30.07R
ROSWELL        CLEAR     86  47  25 S7        30.06R
RUIDOSO        PTCLDY    70  45  40 SE8       30.35R
SANTA FE       CLEAR     75  42  30 SW6       30.24R
TRUTH OR CONSE CLEAR     87  39  18 SW7       30.13R
TUCUMCARI      CLEAR     85  47  26 S12       30.06R
$$

USA.gov is the U.S. government's official web portal to all federal, state and local government web resources and services.